sat.trackr.live / text

‹ back to catalog

STARLINK-1302

NORAD 45375 · 2020-019R

PAYLOAD ACTIVE UNKNOWN

§ Identity

Operator
Country
US
Launch date
2020-03-18
Launch site
AFETR
Launch vehicle
Mass (kg)
RCS (m²)

Purposes: comms

External: N2YO · Heavens-Above · Gunter

§ Orbital elements

Epoch: 2026-09-19T14:18:06.998112Z

Period
91.19 min
Inclination
53.0391°
Eccentricity
0.0006984
Mean motion
15.79178651 rev/d
Perigee alt
328.1 km
Apogee alt
337.5 km
Semi-major
6,710.9 km
B*
3.8278e-4
RAAN
276.4929°
Arg perigee
44.9846°
Mean anomaly
315.1739°
Rev number
36,035

§ Raw data

STARLINK-13021 45375U 20019R   26262.59591433  .00069913  00000+0  38278-3 0  99912 45375  53.0391 276.4929 0006984  44.9846 315.1739 15.79178651360354

JSON: /api/v1/satellites/45375 · /tle

For live sub-satellite position, see the globe view (requires WebGL).

§ Visibility from observer

Set your observer location to see the next 7 days of passes ≥ 10°. The values pass through the URL so the page stays shareable.

No JS? Fill the form by hand. The geolocation button needs JavaScript.